START_TIME,STEP,MOV.,H8,t_acc.,H43,t_acc.,M25,t_acc.,H9,t_acc.
1979-08-01 15:00:28.380 ,1,0,0.,12.0,0.,12.0,0.,12.0,0.,12.0
1979-08-01 15:00:40.380 ,1,0,0.,12.0,0.,12.0,0.,12.0,0.,12.0
1979-08-01 15:00:52.380 ,2,0,0.,12.0,0.,12.0,0.,12.0,0.,12.0
1979-08-01 15:01:04.380 ,2,0,0.,12.0,0.,12.0,0.,12.0,0.,12.0
1979-08-01 15:01:16.380 ,2,0,0.,12.0,0.,12.0,0.,12.0,0.,12.0
1979-08-01 15:01:28.380 ,2,0,0.,12.0,0.,12.0,0.,12.0,0.,12.0
1979-08-01 15:01:40.380 ,3,0,0.,12.0,0.,12.0,0.,12.0,0.,12.0
1979-08-01 15:01:52.380 ,3,0,0.,12.0,0.,12.0,0.,12.0,0.,12.0
1979-08-01 15:02:04.380 ,3,0,0.,12.0,0.,12.0,0.,12.0,0.,12.0
1979-08-01 15:02:16.380 ,3,0,0.,12.0,0.,12.0,0.,12.0,0.,12.0
1979-08-01 15:02:28.380 ,4,0,0.,12.0,0.,12.0,0.,12.0,0.,12.0
1979-08-01 15:02:40.380 ,4,0,0.,12.0,0.,12.0,0.,12.0,0.,12.0
1979-08-01 15:02:52.380 ,4,0,0.,12.0,0.,12.0,0.,12.0,0.,12.0
1979-08-01 15:03:04.380 ,4,0,0.,12.0,0.,12.0,0.,12.0,0.,12.0
1979-08-01 15:03:16.380 ,5,0,0.,12.0,0.,12.0,0.,12.0,0.,12.0
1979-08-01 15:03:28.380 ,5,0,0.,12.0,0.,12.0,0.,12.0,0.,12.0
1979-08-01 15:03:40.380 ,5,0,0.,12.0,0.,12.0,0.,12.0,0.,12.0
1979-08-01 15:03:52.380 ,5,0,0.,12.0,0.,12.0,0.,12.0,0.,12.0
1979-08-01 15:04:04.380 ,6,0,0.,12.0,0.,12.0,0.,12.0,0.,12.0
1979-08-01 15:04:16.380 ,6,0,0.,12.0,0.,12.0,0.,12.0,0.,12.0
1979-08-01 15:04:28.380 ,6,0,0.,12.0,0.,12.0,0.,12.0,0.,12.0
1979-08-01 15:04:40.380 ,6,0,0.,12.0,0.,12.0,0.,12.0,0.,12.0
1979-08-01 15:04:52.380 ,7,0,0.,12.0,0.,12.0,0.,12.0,0.,12.0
1979-08-01 15:05:04.380 ,7,0,0.,12.0,0.,12.0,0.,12.0,0.,12.0
1979-08-01 15:05:16.380 ,0,0,0.,12.0,0.,12.0,0.,12.0,0.,12.0
1979-08-01 15:05:28.380 ,0,0,1.,12.0,0.,12.0,2.,12.0,0.,12.0
1979-08-01 15:05:40.380 ,7,0,0.,12.0,0.,12.0,0.,12.0,0.,12.0
1979-08-01 15:05:52.380 ,7,0,0.,12.0,0.,12.0,0.,12.0,0.,12.0
1979-08-01 15:06:04.380 ,7,0,0.,12.0,0.,12.0,0.,12.0,0.,12.0
1979-08-01 15:06:16.380 ,7,0,0.,12.0,0.,12.0,0.,12.0,0.,12.0
1979-08-01 15:06:28.380 ,6,0,0.,12.0,0.,12.0,0.,12.0,0.,12.0
1979-08-01 15:06:40.380 ,6,0,0.,12.0,0.,12.0,0.,12.0,0.,12.0
1979-08-01 15:06:52.380 ,6,0,0.,12.0,0.,12.0,0.,12.0,0.,12.0
1979-08-01 15:07:04.380 ,6,0,0.,12.0,0.,12.0,0.,12.0,0.,12.0
1979-08-01 15:07:16.380 ,5,0,0.,12.0,0.,12.0,0.,12.0,0.,12.0
1979-08-01 15:07:28.380 ,5,0,0.,12.0,0.,12.0,0.,12.0,0.,12.0
1979-08-01 15:07:40.380 ,5,0,0.,12.0,0.,12.0,0.,12.0,0.,12.0
1979-08-01 15:07:52.380 ,5,0,0.,12.0,0.,12.0,0.,12.0,0.,12.0
1979-08-01 15:08:04.380 ,4,0,0.,12.0,0.,12.0,0.,12.0,0.,12.0
1979-08-01 15:08:16.380 ,4,0,0.,12.0,0.,12.0,0.,12.0,0.,12.0
1979-08-01 15:08:28.380 ,4,0,0.,12.0,0.,12.0,0.,12.0,0.,12.0
1979-08-01 15:08:40.380 ,4,0,0.,12.0,0.,12.0,0.,12.0,0.,12.0
1979-08-01 15:08:52.380 ,3,0,0.,12.0,0.,12.0,0.,12.0,0.,12.0
1979-08-01 15:09:04.380 ,3,0,0.,12.0,0.,12.0,0.,12.0,0.,12.0
1979-08-01 15:09:16.380 ,3,0,0.,12.0,0.,12.0,0.,12.0,0.,12.0
1979-08-01 15:09:28.380 ,3,0,0.,12.0,0.,12.0,0.,12.0,0.,12.0
1979-08-01 15:09:40.380 ,2,0,0.,12.0,0.,12.0,0.,12.0,0.,12.0
1979-08-01 15:09:52.380 ,2,0,0.,12.0,0.,12.0,0.,12.0,0.,12.0
1979-08-01 15:10:04.380 ,2,0,0.,12.0,0.,12.0,0.,12.0,0.,12.0
1979-08-01 15:10:16.380 ,2,0,0.,12.0,0.,12.0,0.,12.0,0.,12.0
1979-08-01 15:10:28.380 ,1,0,0.,12.0,0.,12.0,0.,12.0,0.,12.0
1979-08-01 15:10:40.380 ,1,0,0.,12.0,0.,12.0,0.,12.0,0.,12.0
1979-08-01 15:10:52.380 ,1,0,0.,12.0,0.,12.0,0.,12.0,0.,12.0
1979-08-01 15:11:04.380 ,1,0,0.,12.0,0.,12.0,0.,12.0,0.,12.0
1979-08-01 15:11:16.380 ,0,0,0.,12.0,0.,12.0,0.,12.0,0.,12.0
1979-08-01 15:11:28.380 ,0,0,0.,12.0,0.,12.0,0.,12.0,1.,12.0
1979-08-01 15:11:40.380 ,0,0,1.,12.0,0.,12.0,0.,12.0,0.,12.0
1979-08-01 15:11:52.380 ,0,0,0.,12.0,0.,12.0,0.,12.0,0.,12.0
1979-08-01 15:12:04.380 ,0,0,0.,12.0,0.,12.0,0.,12.0,0.,12.0
1979-08-01 15:12:16.380 ,0,0,0.,12.0,0.,12.0,0.,12.0,0.,12.0
1979-08-01 15:12:28.380 ,0,0,0.,12.0,0.,12.0,0.,12.0,0.,12.0
1979-08-01 15:12:40.380 ,0,0,0.,12.0,0.,12.0,0.,12.0,0.,12.0
1979-08-01 15:12:52.380 ,1,0,0.,12.0,0.,12.0,0.,12.0,0.,12.0
1979-08-01 15:13:04.380 ,1,0,0.,12.0,0.,12.0,0.,12.0,0.,12.0
1979-08-01 15:13:16.380 ,1,0,0.,12.0,0.,12.0,0.,12.0,0.,12.0
1979-08-01 15:13:28.380 ,1,0,0.,12.0,0.,12.0,0.,12.0,0.,12.0
1979-08-01 15:13:40.380 ,2,0,0.,12.0,0.,12.0,0.,12.0,0.,12.0
1979-08-01 15:13:52.380 ,2,0,0.,12.0,0.,12.0,0.,12.0,0.,12.0
1979-08-01 15:14:04.380 ,2,0,0.,12.0,0.,12.0,0.,12.0,0.,12.0
1979-08-01 15:14:16.380 ,2,0,0.,12.0,0.,12.0,0.,12.0,0.,12.0
1979-08-01 15:14:28.380 ,3,0,0.,12.0,0.,12.0,0.,12.0,0.,12.0
1979-08-01 15:14:40.380 ,3,0,0.,12.0,0.,12.0,0.,12.0,0.,12.0
1979-08-01 15:14:52.380 ,3,0,0.,12.0,0.,12.0,0.,12.0,0.,12.0
1979-08-01 15:15:04.380 ,3,0,0.,12.0,0.,12.0,0.,12.0,0.,12.0
1979-08-01 15:15:16.380 ,4,0,0.,12.0,0.,12.0,0.,12.0,0.,12.0
1979-08-01 15:15:28.380 ,4,0,0.,12.0,0.,12.0,0.,12.0,0.,12.0
1979-08-01 15:15:40.380 ,4,0,0.,12.0,0.,12.0,0.,12.0,0.,12.0
1979-08-01 15:15:52.380 ,4,0,0.,12.0,0.,12.0,0.,12.0,0.,12.0
1979-08-01 15:16:04.380 ,5,0,0.,12.0,0.,12.0,0.,12.0,0.,12.0
1979-08-01 15:16:16.380 ,5,0,0.,12.0,0.,12.0,0.,12.0,0.,12.0
1979-08-01 15:16:28.380 ,5,0,0.,12.0,0.,12.0,0.,12.0,0.,12.0
1979-08-01 15:16:40.380 ,5,0,0.,12.0,0.,12.0,0.,12.0,0.,12.0
1979-08-01 15:16:52.380 ,6,0,0.,12.0,0.,12.0,0.,12.0,0.,12.0
1979-08-01 15:17:04.380 ,6,0,0.,12.0,0.,12.0,0.,12.0,0.,12.0
1979-08-01 15:17:16.380 ,6,0,0.,12.0,0.,12.0,0.,12.0,0.,12.0
1979-08-01 15:17:28.380 ,6,0,0.,12.0,0.,12.0,0.,12.0,0.,12.0
1979-08-01 15:18:28.380 ,0,0,0.,12.0,0.,12.0,0.,12.0,0.,12.0
1979-08-01 15:18:40.380 ,0,0,0.,12.0,0.,12.0,0.,12.0,0.,12.0
1979-08-01 15:18:52.380 ,0,0,0.,12.0,0.,12.0,0.,12.0,0.,12.0
1979-08-01 15:19:04.380 ,0,0,0.,12.0,0.,12.0,0.,12.0,0.,12.0
1979-08-01 15:19:16.380 ,6,0,0.,12.0,0.,12.0,0.,12.0,0.,12.0
1979-08-01 15:19:28.380 ,6,0,0.,12.0,0.,12.0,0.,12.0,0.,12.0
1979-08-01 15:19:40.380 ,6,0,0.,12.0,0.,12.0,0.,12.0,0.,12.0
1979-08-01 15:19:52.380 ,6,0,0.,12.0,0.,12.0,0.,12.0,0.,12.0
1979-08-01 15:20:04.380 ,5,0,0.,12.0,0.,12.0,0.,12.0,0.,12.0
1979-08-01 15:20:16.380 ,5,0,0.,12.0,0.,12.0,0.,12.0,0.,12.0
1979-08-01 15:20:28.380 ,5,0,0.,12.0,0.,12.0,0.,12.0,0.,12.0
1979-08-01 15:20:40.380 ,5,0,0.,12.0,0.,12.0,0.,12.0,0.,12.0
1979-08-01 15:20:52.380 ,4,0,0.,12.0,0.,12.0,0.,12.0,0.,12.0
1979-08-01 15:21:04.380 ,4,0,0.,12.0,0.,12.0,0.,12.0,0.,12.0
1979-08-01 15:21:16.380 ,4,0,0.,12.0,0.,12.0,0.,12.0,0.,12.0
1979-08-01 15:21:28.380 ,4,0,0.,12.0,0.,12.0,0.,12.0,0.,12.0
1979-08-01 15:21:40.380 ,3,0,0.,12.0,0.,12.0,0.,12.0,0.,12.0
1979-08-01 15:21:52.380 ,3,0,0.,12.0,0.,12.0,0.,12.0,0.,12.0
1979-08-01 15:22:04.380 ,3,0,0.,12.0,0.,12.0,0.,12.0,0.,12.0
1979-08-01 15:22:16.380 ,3,0,0.,12.0,0.,12.0,0.,12.0,0.,12.0
1979-08-01 15:22:28.380 ,2,0,0.,12.0,0.,12.0,0.,12.0,0.,12.0
1979-08-01 15:22:40.380 ,2,0,0.,12.0,0.,12.0,0.,12.0,0.,12.0
1979-08-01 15:22:52.380 ,2,0,0.,12.0,0.,12.0,0.,12.0,0.,12.0
1979-08-01 15:23:04.380 ,2,0,0.,12.0,0.,12.0,0.,12.0,0.,12.0
1979-08-01 15:24:04.380 ,0,0,0.,12.0,0.,12.0,0.,12.0,0.,12.0
1979-08-01 15:24:16.380 ,0,0,0.,12.0,0.,12.0,0.,12.0,0.,12.0
1979-08-01 15:24:28.380 ,0,0,0.,12.0,0.,12.0,0.,12.0,0.,12.0
1979-08-01 15:24:40.380 ,0,0,0.,12.0,0.,12.0,0.,12.0,0.,12.0
1979-08-01 15:24:52.380 ,0,0,0.,12.0,0.,12.0,0.,12.0,0.,12.0
1979-08-01 15:25:04.380 ,0,0,0.,12.0,0.,12.0,0.,12.0,0.,12.0
1979-08-01 15:25:16.380 ,0,0,0.,12.0,0.,12.0,0.,12.0,0.,12.0
1979-08-01 15:25:28.380 ,0,0,0.,12.0,0.,12.0,0.,12.0,0.,12.0
1979-08-01 15:25:40.380 ,1,0,0.,12.0,0.,12.0,0.,12.0,0.,12.0
1979-08-01 15:25:52.380 ,1,0,0.,12.0,0.,12.0,0.,12.0,0.,12.0
1979-08-01 15:26:04.380 ,1,0,0.,12.0,0.,12.0,0.,12.0,0.,12.0
1979-08-01 15:26:16.380 ,1,0,0.,12.0,0.,12.0,0.,12.0,0.,12.0
1979-08-01 15:26:28.380 ,2,0,0.,12.0,0.,12.0,0.,12.0,0.,12.0
1979-08-01 15:26:40.380 ,2,0,0.,12.0,0.,12.0,0.,12.0,0.,12.0
1979-08-01 15:26:52.380 ,2,0,0.,12.0,0.,12.0,0.,12.0,0.,12.0
1979-08-01 15:27:04.380 ,2,0,0.,12.0,0.,12.0,0.,12.0,0.,12.0
1979-08-01 15:27:16.380 ,3,0,0.,12.0,0.,12.0,0.,12.0,0.,12.0
1979-08-01 15:27:28.380 ,3,0,0.,12.0,0.,12.0,0.,12.0,0.,12.0
1979-08-01 15:27:40.380 ,3,0,0.,12.0,0.,12.0,0.,12.0,0.,12.0
1979-08-01 15:27:52.380 ,3,0,0.,12.0,0.,12.0,0.,12.0,0.,12.0
1979-08-01 15:28:04.380 ,4,0,0.,12.0,0.,12.0,0.,12.0,0.,12.0
1979-08-01 15:28:16.380 ,4,0,0.,12.0,0.,12.0,0.,12.0,0.,12.0
1979-08-01 15:28:28.380 ,4,0,0.,12.0,0.,12.0,0.,12.0,0.,12.0
1979-08-01 15:28:40.380 ,4,0,0.,12.0,0.,12.0,0.,12.0,0.,12.0
1979-08-01 15:28:52.380 ,5,0,0.,12.0,0.,12.0,1.,12.0,0.,12.0
1979-08-01 15:29:04.380 ,5,0,0.,12.0,0.,12.0,0.,12.0,0.,12.0
1979-08-01 15:29:16.380 ,5,0,0.,12.0,0.,12.0,0.,12.0,0.,12.0
1979-08-01 15:29:28.380 ,5,0,0.,12.0,0.,12.0,0.,12.0,0.,12.0
1979-08-01 15:30:28.380 ,7,0,0.,12.0,0.,12.0,0.,12.0,0.,12.0
1979-08-01 15:30:40.380 ,7,0,0.,12.0,0.,12.0,0.,12.0,0.,12.0
1979-08-01 15:30:52.380 ,7,0,0.,12.0,0.,12.0,0.,12.0,0.,12.0
1979-08-01 15:31:04.380 ,7,0,0.,12.0,0.,12.0,0.,12.0,0.,12.0
1979-08-01 15:31:16.380 ,3,1,0.,12.0,0.,12.0,0.,12.0,0.,12.0
1979-08-01 15:31:28.380 ,3,1,0.,12.0,0.,12.0,0.,12.0,0.,12.0
1979-08-01 15:31:40.380 ,0,1,0.,12.0,0.,12.0,0.,12.0,0.,12.0
1979-08-01 15:31:52.380 ,0,1,0.,12.0,0.,12.0,0.,12.0,0.,12.0
1979-08-01 15:32:04.380 ,4,1,0.,12.0,0.,12.0,0.,12.0,0.,12.0
1979-08-01 15:32:16.380 ,4,1,0.,12.0,0.,12.0,0.,12.0,0.,12.0
1979-08-01 15:32:28.380 ,6,0,0.,12.0,0.,12.0,0.,12.0,0.,12.0
1979-08-01 15:32:40.380 ,6,0,1.,12.0,1.,12.0,0.,12.0,0.,12.0
1979-08-01 15:32:52.380 ,0,0,0.,12.0,0.,12.0,0.,12.0,0.,12.0
1979-08-01 15:33:04.380 ,0,0,0.,12.0,0.,12.0,0.,12.0,0.,12.0
1979-08-01 15:33:16.380 ,0,1,0.,12.0,0.,12.0,0.,12.0,0.,12.0
1979-08-01 15:33:28.380 ,0,1,0.,12.0,0.,12.0,0.,12.0,0.,12.0
1979-08-01 15:33:40.380 ,4,1,0.,12.0,0.,12.0,0.,12.0,0.,12.0
1979-08-01 15:33:52.380 ,4,1,0.,12.0,0.,12.0,0.,12.0,0.,12.0
1979-08-01 15:34:04.380 ,7,1,0.,12.0,0.,12.0,0.,12.0,0.,12.0
1979-08-01 15:34:16.380 ,7,1,0.,12.0,0.,12.0,0.,12.0,0.,12.0
1979-08-01 15:34:28.380 ,3,1,0.,12.0,0.,12.0,0.,12.0,0.,12.0
1979-08-01 15:34:40.380 ,3,1,0.,12.0,0.,12.0,0.,12.0,0.,12.0
1979-08-01 15:34:52.380 ,0,1,0.,12.0,0.,12.0,0.,12.0,0.,12.0
1979-08-01 15:35:04.380 ,0,1,0.,12.0,0.,12.0,0.,12.0,0.,12.0
1979-08-01 15:35:16.380 ,4,1,0.,12.0,0.,12.0,0.,12.0,0.,12.0
1979-08-01 15:35:28.380 ,4,1,0.,12.0,0.,12.0,0.,12.0,0.,12.0
1979-08-01 15:35:40.380 ,7,1,0.,12.0,0.,12.0,0.,12.0,0.,12.0
1979-08-01 15:35:52.380 ,7,1,0.,12.0,0.,12.0,0.,12.0,0.,12.0
1979-08-01 15:36:04.380 ,3,1,0.,12.0,0.,12.0,0.,12.0,0.,12.0
1979-08-01 15:36:16.380 ,3,1,0.,12.0,0.,12.0,0.,12.0,0.,12.0
1979-08-01 15:36:28.380 ,0,1,0.,12.0,0.,12.0,0.,12.0,0.,12.0
1979-08-01 15:36:40.380 ,0,1,0.,12.0,0.,12.0,0.,12.0,0.,12.0
1979-08-01 15:36:52.380 ,4,1,0.,12.0,0.,12.0,0.,12.0,0.,12.0
1979-08-01 15:37:04.380 ,4,1,0.,12.0,0.,12.0,0.,12.0,0.,12.0
1979-08-01 15:37:16.380 ,7,1,0.,12.0,0.,12.0,0.,12.0,0.,12.0
1979-08-01 15:37:28.380 ,7,1,0.,12.0,0.,12.0,0.,12.0,0.,12.0
1979-08-01 15:37:40.380 ,3,1,0.,12.0,0.,12.0,0.,12.0,0.,12.0
1979-08-01 15:37:52.380 ,3,1,0.,12.0,0.,12.0,0.,12.0,0.,12.0
1979-08-01 15:38:04.380 ,0,1,0.,12.0,0.,12.0,0.,12.0,0.,12.0
1979-08-01 15:38:16.380 ,0,1,0.,12.0,0.,12.0,0.,12.0,0.,12.0
1979-08-01 15:38:28.380 ,0,0,0.,12.0,0.,12.0,0.,12.0,0.,12.0
1979-08-01 15:38:40.380 ,0,0,0.,12.0,0.,12.0,0.,12.0,0.,12.0
1979-08-01 15:38:52.380 ,0,0,,0,,0,,0,,0
1979-08-01 15:39:04.380 ,0,0,,0,,0,,0,,0
1979-08-01 16:01:50.580 ,0,0,,0,,0,,0,,0
1979-08-01 16:02:02.580 ,0,0,1.,12.0,0.,12.0,0.,12.0,0.,12.0
1979-08-01 16:02:04.380 ,0,0,0.,12.0,0.,12.0,0.,12.0,0.,12.0
1979-08-01 16:02:16.380 ,0,0,0.,12.0,0.,12.0,0.,12.0,0.,12.0
1979-08-01 16:02:28.380 ,3,0,0.,12.0,0.,12.0,0.,12.0,0.,12.0
1979-08-01 16:02:40.380 ,3,0,0.,12.0,0.,12.0,0.,12.0,0.,12.0
1979-08-01 16:02:52.380 ,3,0,0.,12.0,0.,12.0,0.,12.0,0.,12.0
1979-08-01 16:03:04.380 ,3,0,0.,12.0,0.,12.0,0.,12.0,0.,12.0
1979-08-01 16:03:16.380 ,4,0,0.,12.0,0.,12.0,0.,12.0,0.,12.0
1979-08-01 16:03:28.380 ,4,0,0.,12.0,0.,12.0,0.,12.0,0.,12.0
1979-08-01 16:03:40.380 ,4,0,0.,12.0,0.,12.0,0.,12.0,0.,12.0
1979-08-01 16:03:52.380 ,4,0,0.,12.0,0.,12.0,0.,12.0,0.,12.0
1979-08-01 16:04:04.380 ,5,0,0.,12.0,0.,12.0,0.,12.0,0.,12.0
1979-08-01 16:04:16.380 ,5,0,0.,12.0,0.,12.0,0.,12.0,0.,12.0
1979-08-01 16:04:28.380 ,5,0,0.,12.0,0.,12.0,0.,12.0,0.,12.0
1979-08-01 16:04:40.380 ,5,0,0.,12.0,0.,12.0,0.,12.0,0.,12.0
1979-08-01 16:04:52.380 ,6,0,0.,12.0,0.,12.0,0.,12.0,0.,12.0
1979-08-01 16:05:04.380 ,6,0,0.,12.0,0.,12.0,0.,12.0,0.,12.0
1979-08-01 16:05:16.380 ,6,0,0.,12.0,0.,12.0,0.,12.0,0.,12.0
1979-08-01 16:05:28.380 ,6,0,1.,12.0,0.,12.0,0.,12.0,0.,12.0
1979-08-01 16:05:40.380 ,7,0,0.,12.0,0.,12.0,0.,12.0,0.,12.0
1979-08-01 16:05:52.380 ,7,0,0.,12.0,0.,12.0,0.,12.0,0.,12.0
1979-08-01 16:06:04.380 ,7,0,0.,12.0,0.,12.0,0.,12.0,0.,12.0
1979-08-01 16:06:16.380 ,7,0,0.,12.0,0.,12.0,0.,12.0,0.,12.0
1979-08-01 16:06:28.380 ,7,0,0.,12.0,0.,12.0,0.,12.0,0.,12.0
1979-08-01 16:06:40.380 ,7,0,0.,12.0,0.,12.0,0.,12.0,0.,12.0
1979-08-01 16:06:52.380 ,7,0,0.,12.0,0.,12.0,0.,12.0,0.,12.0
1979-08-01 16:07:04.380 ,7,0,0.,12.0,0.,12.0,0.,12.0,0.,12.0
1979-08-01 16:07:16.380 ,6,0,0.,12.0,0.,12.0,0.,12.0,0.,12.0
1979-08-01 16:07:28.380 ,6,0,0.,12.0,0.,12.0,0.,12.0,0.,12.0
1979-08-01 16:07:40.380 ,6,0,0.,12.0,0.,12.0,0.,12.0,0.,12.0
1979-08-01 16:07:52.380 ,6,0,0.,12.0,0.,12.0,0.,12.0,0.,12.0
1979-08-01 16:08:04.380 ,5,0,0.,12.0,0.,12.0,0.,12.0,0.,12.0
1979-08-01 16:08:16.380 ,5,0,0.,12.0,0.,12.0,0.,12.0,0.,12.0
1979-08-01 16:08:28.380 ,5,0,0.,12.0,0.,12.0,0.,12.0,0.,12.0
1979-08-01 16:08:40.380 ,5,0,0.,12.0,0.,12.0,0.,12.0,0.,12.0
1979-08-01 16:08:52.380 ,4,0,0.,12.0,0.,12.0,0.,12.0,0.,12.0
1979-08-01 16:09:04.380 ,4,0,0.,12.0,0.,12.0,0.,12.0,0.,12.0
1979-08-01 16:09:16.380 ,4,0,0.,12.0,0.,12.0,0.,12.0,0.,12.0
1979-08-01 16:09:28.380 ,4,0,0.,12.0,0.,12.0,0.,12.0,0.,12.0
1979-08-01 16:09:40.380 ,3,0,0.,12.0,0.,12.0,0.,12.0,0.,12.0
1979-08-01 16:09:52.380 ,3,0,0.,12.0,0.,12.0,0.,12.0,0.,12.0
1979-08-01 16:10:04.380 ,3,0,0.,12.0,0.,12.0,0.,12.0,0.,12.0
1979-08-01 16:10:16.380 ,3,0,0.,12.0,0.,12.0,0.,12.0,0.,12.0
1979-08-01 16:10:28.380 ,2,0,0.,12.0,0.,12.0,0.,12.0,0.,12.0
1979-08-01 16:10:40.380 ,2,0,0.,12.0,0.,12.0,0.,12.0,0.,12.0
1979-08-01 16:10:52.380 ,2,0,0.,12.0,0.,12.0,0.,12.0,0.,12.0
1979-08-01 16:11:04.380 ,2,0,0.,12.0,0.,12.0,0.,12.0,0.,12.0
1979-08-01 16:11:16.380 ,1,0,0.,12.0,0.,12.0,0.,12.0,0.,12.0
1979-08-01 16:11:28.380 ,1,0,0.,12.0,0.,12.0,0.,12.0,0.,12.0
1979-08-01 16:11:40.380 ,1,0,0.,12.0,0.,12.0,0.,12.0,0.,12.0
1979-08-01 16:11:52.380 ,1,0,0.,12.0,0.,12.0,0.,12.0,0.,12.0
1979-08-01 16:12:04.380 ,0,0,0.,12.0,0.,12.0,0.,12.0,0.,12.0
1979-08-01 16:12:16.380 ,0,0,0.,12.0,0.,12.0,0.,12.0,0.,12.0
1979-08-01 16:12:28.380 ,0,0,0.,12.0,0.,12.0,0.,12.0,0.,12.0
1979-08-01 16:12:40.380 ,0,0,0.,12.0,0.,12.0,0.,12.0,0.,12.0
1979-08-01 16:12:52.380 ,0,0,0.,12.0,0.,12.0,0.,12.0,0.,12.0
1979-08-01 16:13:04.380 ,0,0,1.,12.0,0.,12.0,0.,12.0,0.,12.0
1979-08-01 16:13:16.380 ,0,0,0.,12.0,0.,12.0,0.,12.0,0.,12.0
1979-08-01 16:13:28.380 ,0,0,0.,12.0,0.,12.0,0.,12.0,0.,12.0
1979-08-01 16:13:40.380 ,1,0,0.,12.0,0.,12.0,0.,12.0,0.,12.0
1979-08-01 16:13:52.380 ,1,0,0.,12.0,0.,12.0,0.,12.0,0.,12.0
1979-08-01 16:14:04.380 ,1,0,0.,12.0,0.,12.0,0.,12.0,0.,12.0
1979-08-01 16:14:16.380 ,1,0,0.,12.0,0.,12.0,0.,12.0,0.,12.0
1979-08-01 16:14:28.380 ,2,0,0.,12.0,0.,12.0,0.,12.0,0.,12.0
1979-08-01 16:14:40.380 ,2,0,0.,12.0,0.,12.0,0.,12.0,0.,12.0
1979-08-01 16:14:52.380 ,2,0,0.,12.0,0.,12.0,0.,12.0,0.,12.0
1979-08-01 16:15:04.380 ,2,0,0.,12.0,0.,12.0,0.,12.0,0.,12.0
1979-08-01 16:15:16.380 ,0,0,,0,,0,,0,,0
1979-08-01 16:15:28.380 ,0,0,0.,12.0,0.,12.0,0.,12.0,0.,12.0
1979-08-01 16:15:40.380 ,0,0,0.,12.0,1.,12.0,0.,12.0,0.,12.0
1979-08-01 16:15:52.380 ,0,0,0.,12.0,1.,12.0,0.,12.0,1.,12.0
1979-08-01 16:16:04.380 ,0,0,0.,12.0,0.,12.0,0.,12.0,0.,12.0
1979-08-01 16:16:16.380 ,0,0,0.,12.0,0.,12.0,0.,12.0,0.,12.0
1979-08-01 16:16:28.380 ,0,0,0.,12.0,0.,12.0,0.,12.0,0.,12.0
1979-08-01 16:16:40.380 ,0,0,0.,12.0,0.,12.0,0.,12.0,0.,12.0
1979-08-01 16:16:52.380 ,5,0,0.,12.0,0.,12.0,0.,12.0,0.,12.0
1979-08-01 16:17:04.380 ,5,0,0.,12.0,0.,12.0,0.,12.0,0.,12.0
1979-08-01 16:17:16.380 ,5,0,0.,12.0,0.,12.0,0.,12.0,0.,12.0
1979-08-01 16:17:28.380 ,5,0,0.,12.0,0.,12.0,0.,12.0,0.,12.0
1979-08-01 16:17:40.380 ,6,0,0.,12.0,0.,12.0,0.,12.0,0.,12.0
1979-08-01 16:17:52.380 ,6,0,1.,12.0,0.,12.0,0.,12.0,0.,12.0
1979-08-01 16:18:04.380 ,6,0,0.,12.0,0.,12.0,0.,12.0,0.,12.0
1979-08-01 16:18:16.380 ,6,0,0.,12.0,0.,12.0,0.,12.0,0.,12.0
1979-08-01 16:18:28.380 ,7,0,0.,12.0,0.,12.0,0.,12.0,0.,12.0
1979-08-01 16:18:40.380 ,7,0,0.,12.0,0.,12.0,0.,12.0,0.,12.0
1979-08-01 16:18:52.380 ,7,0,0.,12.0,0.,12.0,0.,12.0,0.,12.0
1979-08-01 16:19:04.380 ,7,0,0.,12.0,0.,12.0,0.,12.0,0.,12.0
1979-08-01 16:19:16.380 ,3,1,0.,12.0,0.,12.0,0.,12.0,0.,12.0
1979-08-01 16:19:28.380 ,3,1,0.,12.0,0.,12.0,0.,12.0,0.,12.0
1979-08-01 16:19:40.380 ,0,1,0.,12.0,0.,12.0,0.,12.0,0.,12.0
1979-08-01 16:19:52.380 ,0,1,0.,12.0,0.,12.0,0.,12.0,0.,12.0
1979-08-01 16:20:04.380 ,4,1,0.,12.0,0.,12.0,0.,12.0,0.,12.0
1979-08-01 16:20:16.380 ,4,1,0.,12.0,0.,12.0,0.,12.0,0.,12.0
1979-08-01 16:20:28.380 ,7,1,0.,12.0,0.,12.0,0.,12.0,0.,12.0
1979-08-01 16:20:40.380 ,7,1,0.,12.0,0.,12.0,0.,12.0,0.,12.0
1979-08-01 16:20:52.380 ,3,1,0.,12.0,0.,12.0,0.,12.0,0.,12.0
1979-08-01 16:21:04.380 ,3,1,0.,12.0,0.,12.0,0.,12.0,0.,12.0
1979-08-01 16:21:16.380 ,0,1,0.,12.0,0.,12.0,0.,12.0,0.,12.0
1979-08-01 16:21:28.380 ,0,1,0.,12.0,0.,12.0,0.,12.0,0.,12.0
1979-08-01 16:21:40.380 ,4,1,0.,12.0,0.,12.0,0.,12.0,0.,12.0
1979-08-01 16:21:52.380 ,4,1,0.,12.0,0.,12.0,0.,12.0,0.,12.0
1979-08-01 16:22:04.380 ,7,1,0.,12.0,0.,12.0,0.,12.0,0.,12.0
1979-08-01 16:22:16.380 ,7,1,0.,12.0,0.,12.0,0.,12.0,0.,12.0
1979-08-01 16:22:28.380 ,3,1,0.,12.0,0.,12.0,0.,12.0,0.,12.0
1979-08-01 16:22:40.380 ,3,1,0.,12.0,0.,12.0,0.,12.0,0.,12.0
1979-08-01 16:22:52.380 ,0,1,0.,12.0,0.,12.0,0.,12.0,0.,12.0
1979-08-01 16:23:04.380 ,0,1,0.,12.0,0.,12.0,0.,12.0,0.,12.0
1979-08-01 16:23:16.380 ,4,1,0.,12.0,0.,12.0,0.,12.0,0.,12.0
1979-08-01 16:23:28.380 ,4,1,0.,12.0,0.,12.0,0.,12.0,0.,12.0
1979-08-01 16:23:40.380 ,7,1,0.,12.0,0.,12.0,0.,12.0,0.,12.0
1979-08-01 16:23:52.380 ,7,1,0.,12.0,0.,12.0,0.,12.0,0.,12.0
1979-08-01 16:24:52.380 ,0,0,0.,12.0,0.,12.0,0.,12.0,0.,12.0
1979-08-01 16:25:04.380 ,0,0,0.,12.0,0.,12.0,0.,12.0,0.,12.0
1979-08-01 16:25:16.380 ,7,1,0.,12.0,0.,12.0,0.,12.0,0.,12.0
1979-08-01 16:25:28.380 ,7,1,0.,12.0,0.,12.0,0.,12.0,0.,12.0
1979-08-01 16:25:40.380 ,3,1,0.,12.0,0.,12.0,0.,12.0,0.,12.0
1979-08-01 16:25:52.380 ,3,1,0.,12.0,0.,12.0,0.,12.0,0.,12.0
1979-08-01 16:26:04.380 ,0,1,0.,12.0,0.,12.0,0.,12.0,0.,12.0
1979-08-01 16:26:16.380 ,0,1,0.,12.0,0.,12.0,0.,12.0,0.,12.0
1979-08-01 16:26:28.380 ,4,1,0.,12.0,0.,12.0,0.,12.0,0.,12.0
1979-08-01 16:26:40.380 ,4,1,0.,12.0,0.,12.0,0.,12.0,0.,12.0
1979-08-01 16:26:52.380 ,7,1,0.,12.0,0.,12.0,0.,12.0,0.,12.0
1979-08-01 16:27:04.380 ,7,1,0.,12.0,0.,12.0,0.,12.0,0.,12.0
1979-08-01 16:27:16.380 ,3,1,0.,12.0,0.,12.0,0.,12.0,0.,12.0
1979-08-01 16:27:28.380 ,3,1,0.,12.0,0.,12.0,0.,12.0,0.,12.0
1979-08-01 16:27:40.380 ,0,1,0.,12.0,0.,12.0,0.,12.0,0.,12.0
1979-08-01 16:27:52.380 ,0,1,0.,12.0,0.,12.0,0.,12.0,0.,12.0
1979-08-01 16:28:04.380 ,4,1,0.,12.0,0.,12.0,0.,12.0,0.,12.0
1979-08-01 16:28:16.380 ,4,1,0.,12.0,0.,12.0,0.,12.0,0.,12.0
1979-08-01 16:28:28.380 ,7,1,0.,12.0,0.,12.0,0.,12.0,0.,12.0
1979-08-01 16:28:40.380 ,7,1,0.,12.0,0.,12.0,0.,12.0,0.,12.0
1979-08-01 16:28:52.380 ,3,1,0.,12.0,0.,12.0,0.,12.0,0.,12.0
1979-08-01 16:29:04.380 ,3,1,0.,12.0,0.,12.0,0.,12.0,0.,12.0
1979-08-01 16:29:16.380 ,0,1,0.,12.0,0.,12.0,0.,12.0,0.,12.0
1979-08-01 16:29:28.380 ,0,1,0.,12.0,0.,12.0,0.,12.0,0.,12.0
1979-08-01 16:29:40.380 ,0,0,0.,12.0,0.,12.0,0.,12.0,0.,12.0
1979-08-01 16:29:52.380 ,0,0,0.,12.0,0.,12.0,0.,12.0,0.,12.0
1979-08-01 16:30:04.380 ,0,0,0.,12.0,0.,12.0,0.,12.0,0.,12.0
1979-08-01 16:30:16.380 ,0,0,0.,12.0,0.,12.0,0.,12.0,0.,12.0
1979-08-01 16:30:28.380 ,5,0,0.,12.0,0.,12.0,0.,12.0,0.,12.0
1979-08-01 16:30:40.380 ,5,0,0.,12.0,0.,12.0,0.,12.0,0.,12.0
1979-08-01 16:30:52.380 ,5,0,0.,12.0,0.,12.0,0.,12.0,0.,12.0
1979-08-01 16:31:04.380 ,5,0,0.,12.0,0.,12.0,0.,12.0,0.,12.0
1979-08-01 16:31:16.380 ,4,0,0.,12.0,0.,12.0,0.,12.0,0.,12.0
1979-08-01 16:31:28.380 ,4,0,0.,12.0,0.,12.0,0.,12.0,0.,12.0
1979-08-01 16:31:40.380 ,4,0,0.,12.0,0.,12.0,0.,12.0,0.,12.0
1979-08-01 16:31:52.380 ,4,0,0.,12.0,0.,12.0,0.,12.0,0.,12.0
1979-08-01 16:32:04.380 ,3,0,0.,12.0,0.,12.0,0.,12.0,0.,12.0
1979-08-01 16:32:16.380 ,3,0,0.,12.0,0.,12.0,0.,12.0,0.,12.0
1979-08-01 16:32:28.380 ,3,0,0.,12.0,0.,12.0,0.,12.0,0.,12.0
1979-08-01 16:32:40.380 ,3,0,0.,12.0,0.,12.0,0.,12.0,0.,12.0
1979-08-01 16:36:52.380 ,0,0,0.,12.0,0.,12.0,0.,12.0,0.,12.0
1979-08-01 16:37:04.380 ,0,0,0.,12.0,0.,12.0,0.,12.0,0.,12.0
1979-08-01 16:37:16.380 ,0,0,0.,12.0,0.,12.0,0.,12.0,0.,12.0
1979-08-01 16:37:28.380 ,0,0,0.,12.0,0.,12.0,0.,12.0,0.,12.0
1979-08-01 16:37:40.380 ,3,0,0.,12.0,0.,12.0,0.,12.0,0.,12.0
1979-08-01 16:37:52.380 ,3,0,0.,12.0,0.,12.0,0.,12.0,0.,12.0
1979-08-01 16:38:04.380 ,3,0,0.,12.0,0.,12.0,0.,12.0,0.,12.0
1979-08-01 16:38:16.380 ,3,0,0.,12.0,0.,12.0,0.,12.0,0.,12.0
1979-08-01 16:38:28.380 ,4,0,0.,12.0,0.,12.0,0.,12.0,0.,12.0
1979-08-01 16:38:40.380 ,4,0,0.,12.0,0.,12.0,0.,12.0,0.,12.0
1979-08-01 16:38:52.380 ,4,0,0.,12.0,0.,12.0,0.,12.0,0.,12.0
1979-08-01 16:39:04.380 ,4,0,0.,12.0,0.,12.0,0.,12.0,0.,12.0
1979-08-01 16:39:16.380 ,5,0,0.,12.0,0.,12.0,0.,12.0,0.,12.0
1979-08-01 16:39:28.380 ,5,0,0.,12.0,0.,12.0,0.,12.0,0.,12.0
1979-08-01 16:39:40.380 ,5,0,0.,12.0,0.,12.0,0.,12.0,0.,12.0
1979-08-01 16:39:52.380 ,5,0,0.,12.0,0.,12.0,0.,12.0,0.,12.0
1979-08-01 16:40:04.380 ,6,0,0.,12.0,0.,12.0,0.,12.0,0.,12.0
1979-08-01 16:40:16.380 ,6,0,0.,12.0,0.,12.0,0.,12.0,0.,12.0
1979-08-01 16:40:28.380 ,6,0,0.,12.0,0.,12.0,0.,12.0,0.,12.0
1979-08-01 16:40:40.380 ,6,0,0.,12.0,0.,12.0,0.,12.0,0.,12.0
1979-08-01 16:40:52.380 ,7,0,0.,12.0,0.,12.0,0.,12.0,0.,12.0
1979-08-01 16:41:04.380 ,7,0,0.,12.0,0.,12.0,0.,12.0,0.,12.0
1979-08-01 16:41:16.380 ,0,0,2.,12.0,0.,12.0,0.,12.0,0.,12.0
1979-08-01 16:41:28.380 ,0,0,1.,12.0,0.,12.0,0.,12.0,0.,12.0
1979-08-01 16:41:40.380 ,7,0,0.,12.0,0.,12.0,0.,12.0,0.,12.0
1979-08-01 16:41:52.380 ,7,0,0.,12.0,0.,12.0,0.,12.0,0.,12.0
1979-08-01 16:42:04.380 ,7,0,0.,12.0,0.,12.0,0.,12.0,0.,12.0
1979-08-01 16:42:16.380 ,7,0,0.,12.0,0.,12.0,0.,12.0,0.,12.0
1979-08-01 16:42:28.380 ,6,0,0.,12.0,0.,12.0,0.,12.0,0.,12.0
1979-08-01 16:42:40.380 ,6,0,0.,12.0,0.,12.0,0.,12.0,0.,12.0
1979-08-01 16:42:52.380 ,6,0,0.,12.0,0.,12.0,0.,12.0,0.,12.0
1979-08-01 16:43:04.380 ,6,0,0.,12.0,0.,12.0,0.,12.0,0.,12.0
1979-08-01 16:43:16.380 ,5,0,0.,12.0,0.,12.0,0.,12.0,0.,12.0
1979-08-01 16:43:28.380 ,5,0,0.,12.0,0.,12.0,0.,12.0,0.,12.0
1979-08-01 16:43:40.380 ,5,0,0.,12.0,0.,12.0,0.,12.0,0.,12.0
1979-08-01 16:43:52.380 ,5,0,0.,12.0,0.,12.0,0.,12.0,0.,12.0
1979-08-01 16:44:04.380 ,4,0,0.,12.0,0.,12.0,0.,12.0,0.,12.0
1979-08-01 16:44:16.380 ,4,0,0.,12.0,0.,12.0,0.,12.0,0.,12.0
1979-08-01 16:44:28.380 ,4,0,0.,12.0,0.,12.0,0.,12.0,0.,12.0
1979-08-01 16:44:40.380 ,4,0,0.,12.0,0.,12.0,0.,12.0,0.,12.0
1979-08-01 16:44:52.380 ,3,0,0.,12.0,0.,12.0,0.,12.0,0.,12.0
1979-08-01 16:45:04.380 ,3,0,0.,12.0,0.,12.0,0.,12.0,0.,12.0
1979-08-01 16:45:16.380 ,3,0,0.,12.0,0.,12.0,0.,12.0,0.,12.0
1979-08-01 16:45:28.380 ,3,0,0.,12.0,0.,12.0,0.,12.0,0.,12.0
1979-08-01 16:46:28.380 ,0,0,0.,12.0,0.,12.0,0.,12.0,0.,12.0
1979-08-01 16:46:40.380 ,0,0,0.,12.0,0.,12.0,0.,12.0,0.,12.0
1979-08-01 16:46:52.380 ,0,0,0.,12.0,0.,12.0,0.,12.0,0.,12.0
1979-08-01 16:47:04.380 ,0,0,0.,12.0,0.,12.0,0.,12.0,0.,12.0
1979-08-01 16:47:16.380 ,0,0,0.,12.0,0.,12.0,0.,12.0,0.,12.0
1979-08-01 16:47:28.380 ,0,0,0.,12.0,0.,12.0,0.,12.0,0.,12.0
1979-08-01 16:47:40.380 ,0,0,0.,12.0,0.,12.0,0.,12.0,0.,12.0
1979-08-01 16:47:52.380 ,0,0,0.,12.0,0.,12.0,0.,12.0,0.,12.0
1979-08-01 16:48:04.380 ,0,0,0.,12.0,0.,12.0,0.,12.0,0.,12.0